Location: ???? ??????
(30.6000°N, 60.4167°E)
Time: 23:38:41
(UTC+00:00)

Daily predictions for brighter satellites

Satellite Brightness Start Highest point End
(mag) Time Altitude Azimuth Time Altitude Azimuth Time Altitude Azimuth
USA 234 3.7 15:20:14 10° SSE 15:26:42 64° SW 15:33:12 10° NW
Meteor 1-15 Rocket 4.4 15:23:02 10° N 15:28:57 71° E 15:34:46 10° SSE
Cosmos 614 Rocket 4.4 15:24:33 10° NNW 15:29:43 68° WSW 15:34:53 10° S
Cosmos 2221 Rocket 3.7 15:26:09 10° S 15:30:37 86° W 15:35:04 10° N
Cosmos 1707 4.3 15:27:59 10° SE 15:30:37 18° E 15:33:17 10° NE
MetOp-A 4.2 15:25:31 10° SSE 15:30:48 65° ENE 15:36:06 10° N
Okean 2 Rocket 3.4 15:29:19 10° N 15:33:43 51° E 15:38:06 10° SSE
SAR-Lupe-4 3.5 15:30:10 10° NNE 15:33:45 81° ESE 15:37:18 10° S
Cosmos 1821 Rocket 4.0 15:28:14 10° N 15:34:24 89° E 15:40:29 10° S
FALCON 9 DEB 4.2 15:32:07 10° S 15:34:29 20° SE 15:36:53 10° ENE
KM-V1 3.0 15:33:34 10° WSW 15:35:42 82° S 15:38:49 10° E
FALCON 9 DEB 3.6 15:35:33 10° S 15:38:18 30° SE 15:41:03 10° ENE
SAR-Lupe-1 4.3 15:35:27 10° N 15:39:00 73° WNW 15:42:34 10° SSW
Cosmos 1689 Rocket 4.1 15:39:37 10° N 15:42:10 31° WNW 15:44:42 10° SW
BREEZE-M DEB (TANK) 1.2 15:39:20 10° SW 15:42:19 55° SE 15:44:36 10° ENE
USA 186 1.3 15:40:09 10° SSE 15:42:51 79° ENE 15:45:45 10° N
Lacrosse 5 rocket 1.2 15:39:22 10° SSW 15:43:07 50° SE 15:46:42 10° NE
Cosmos 2151 Rocket 3.8 15:39:39 10° N 15:43:55 51° E 15:48:11 10° SSE
Resurs 01 Rocket 3.4 15:43:46 10° ESE 15:46:31 16° ENE 15:49:14 10° NNE
Cosmos 1300 Rocket 3.7 15:43:16 10° N 15:47:35 75° W 15:51:53 10° S
Cosmos 1674 Rocket 3.5 15:43:14 10° S 15:47:38 77° E 15:52:01 10° N
ERS-2 2.0 15:44:38 10° NNE 15:48:17 83° ESE 15:51:56 10° S
Cosmos 1452 Rocket 3.8 15:43:43 10° S 15:48:45 48° ESE 15:53:48 10° NNE
BREEZE-M DEB (TANK) 1.9 15:48:02 10° NW 15:50:07 58° NE 15:53:35 13° SE
Cosmos 2360 Rocket 2.8 15:46:22 10° SSE 15:51:21 33° ESE 15:56:21 10° NE
Cosmos 1241 Rocket 4.5 15:45:04 10° NNW 15:51:28 88° ENE 15:57:41 10° SSE
SL-16 R/B 2.2 15:47:57 10° SSW 15:53:37 88° WNW 15:59:19 10° NNE
ATLAS 2A CENTAUR R/B 4.4 15:24:28 10° SW 15:53:54 44° S 16:00:57 11° ESE
Cosmos 2322 Rocket 2.2 15:48:49 10° S 15:54:27 70° ESE 16:00:08 10° NNE
Okean 2 3.3 15:52:47 10° S 15:56:51 69° E 16:00:54 10° NNE
Cosmos 407 Rocket 3.8 15:56:47 10° NNW 16:02:02 70° WSW 16:07:12 10° S
CENTAUR R/B 4.5 15:57:22 10° WSW 16:02:20 31° NW 16:08:05 10° N
Cosmos 292 Rocket 3.9 15:58:01 10° SSW 16:02:51 80° WNW 16:07:41 10° NNE
Yuri Rocket 4.2 15:58:31 10° SW 16:03:56 49° SSE 16:11:25 10° E
Cosmos 1238 4.4 16:00:24 10° S 16:04:10 88° E 16:07:20 10° N
Meteor 2-10 4.1 16:00:21 10° N 16:05:25 62° E 16:10:08 12° SSE
Cosmos 1400 Rocket 3.5 16:04:44 10° NNW 16:08:30 52° W 16:12:14 10° S
Cosmos 1934 Rocket 4.0 16:02:26 10° N 16:08:35 90° NW 16:14:49 10° S
Fermi 4.3 16:05:37 10° WSW 16:09:31 41° S 16:11:47 21° ESE
Cosmos 2227 4.3 16:06:15 10° NNW 16:11:50 63° ENE 16:15:58 18° SSE
IUS-18 SRM-1 4.3 15:51:49 10° WSW 16:14:43 61° S 16:18:30 17° E
COSMOS 2428 4.3 16:16:43 15° E 16:16:43 15° E 16:19:39 10° ENE
Cosmos 1674 3.7 16:16:07 23° ESE 16:16:52 25° E 16:19:57 10° NE
Cosmos 1190 Rocket 4.3 16:11:48 10° NNW 16:17:05 70° WSW 16:22:00 12° S
Cosmos 2237 4.1 16:15:20 10° SSW 16:21:01 85° ESE 16:26:44 10° NNE
IRS-1A Rocket 4.3 16:17:44 13° SSE 16:23:01 85° ENE 16:28:52 10° NNW
Meteor 1-21 4.5 16:17:29 10° SSW 16:23:09 73° W 16:28:46 10° N
Meteor 2-20 4.4 16:17:31 10° S 16:23:38 85° E 16:29:43 10° N
ASTRO E2 2.5 16:20:12 10° WSW 16:24:10 76° SSE 16:26:44 21° E
Cosmos 1726 1.9 16:23:04 10° N 16:26:42 75° E 16:28:28 28° SSE
Cosmos 1844 Rocket 4.3 16:27:57 10° NNE 16:32:05 20° ENE 16:34:09 17° E
Cosmos 1727 Rocket 3.9 16:28:04 10° S 16:34:22 80° E 16:40:40 10° N
Okean 1 Rocket 3.0 16:31:02 10° N 16:35:25 84° W 16:38:07 23° S
Cosmos 1455 Rocket 4.3 16:31:57 10° NNE 16:35:39 25° ENE 16:36:13 25° E
Cosmos 1470 3.0 16:34:23 10° NNW 16:38:19 70° W 16:40:30 25° S
Resurs 1-3 4.0 16:36:13 18° S 16:39:21 59° W 16:43:41 10° NNW
SPOT 3 Rocket 3.7 16:38:06 30° SE 16:40:30 59° ENE 16:45:36 10° N
Ariane Rocket 3.3 16:37:56 17° S 16:41:49 63° WSW 16:46:53 10° NNW
IGS 5A 3.3 16:43:24 38° SSE 16:44:55 79° ENE 16:49:04 10° N
Cosmos 1605 Rocket 4.2 16:38:41 10° N 16:45:03 73° W 16:50:12 16° S
FALCON 9 DEB 4.2 16:43:07 10° WSW 16:46:04 40° NW 16:49:03 10° NNE
In-Cosmos 22 4.2 16:40:54 10° SSW 16:46:10 75° W 16:51:27 10° N
MetOp-B 4.3 16:44:13 33° SE 16:46:22 54° ENE 16:51:35 10° N
Cosmos 2263 Rocket 2.9 16:40:56 10° NNW 16:46:26 51° WSW 16:50:20 19° S
OBJECT-B 3.7 16:47:51 10° WSW 16:49:08 12° W 16:50:25 10° WNW
Delta 128 3.8 16:45:35 10° W 16:49:53 49° S 16:50:40 44° SSE
Cosmos 2333 4.1 16:50:28 16° S 16:55:02 70° ESE 17:00:44 10° NNE
Cosmos 1461 4.3 16:53:53 10° N 16:57:13 24° NE 16:57:26 23° ENE
Cosmos 1025 Rocket 3.1 16:57:29 51° ESE 16:57:48 53° E 17:02:04 10° NNE
Lacrosse 5 1.8 16:56:56 10° NW 17:02:01 84° SW 17:03:20 50° SSE
CZ-2C R/B 4.0 16:57:46 10° N 17:02:31 69° WNW 17:05:37 21° SSW
ATLAS CENTAUR R/B 3.9 17:01:34 10° NNE 17:03:21 12° NE 17:04:00 12° ENE
Cosmos 1315 Rocket 4.1 17:00:25 10° NNW 17:04:13 37° W 17:06:02 24° SW
Cosmos 1908 3.9 17:00:46 10° N 17:03:54 40° ENE 17:03:54 40° ENE
Cosmos 1110 Rocket 4.4 17:00:14 10° SSW 17:05:19 61° WNW 17:10:28 10° N
IUS-13 SRM-1 4.4 17:01:22 10° W 17:06:05 60° S 17:33:59 10° ESE
Landsat 7 4.0 17:06:24 39° S 17:08:02 67° WSW 17:12:46 10° NNW
Cosmos 2333 Rocket 2.1 17:05:03 29° S 17:08:02 74° ESE 17:13:47 10° NNE
Cosmos 1626 2.4 17:09:14 59° NNE 17:09:14 59° NNE 17:12:20 10° N
CARTOSAT-1 4.1 17:09:28 42° ENE 17:09:28 42° ENE 17:13:23 10° N
Cosmos 1459 Rocket 4.0 17:03:39 10° N 17:09:36 57° E 17:11:05 46° SE
Cosmos 2219 Rocket 2.1 17:09:45 44° S 17:11:28 66° ESE 17:17:06 10° NNE
Cosmos 1000 Rocket 4.4 17:08:29 29° S 17:11:51 88° W 17:18:00 10° N
BREEZE-M DEB (TANK) 4.2 17:00:40 10° NW 17:12:45 51° WSW 17:14:13 39° S
ATLAS 3B R/B 2.7 17:08:29 10° SSW 17:14:58 75° WNW 17:21:37 10° NNE
USA 245 3.7 17:15:21 65° SE 17:16:01 80° ENE 17:21:28 10° N
Cosmos 1975 Rocket 4.3 17:16:22 20° SW 17:18:49 37° W 17:22:54 10° NNW
Resurs 01 Rocket 3.0 17:21:12 26° SW 17:22:41 33° W 17:26:38 10° NNW
Cosmos 1844 4.0 17:19:53 10° N 17:25:17 48° ENE 17:25:46 47° E
Cosmos 2237 Rocket 4.0 17:33:38 17° ENE 17:33:38 17° ENE 17:35:19 10° NE
Cosmos 2360 Rocket 4.2 17:30:40 10° WSW 17:35:17 26° WNW 17:39:56 10° N
Meteor 1-24 Rocket 4.0 17:37:03 47° ENE 17:37:03 47° ENE 17:41:30 10° NNE
Uosat 12 SS-18 rocket 4.3 17:37:06 67° NNW 17:37:06 67° NNW 17:41:17 10° NNE
Cosmos 2123 Rocket 3.9 17:35:27 54° S 17:37:02 90° SE 17:43:22 10° N
SL-14 R/B 4.1 17:39:48 50° NNW 17:39:48 50° NNW 17:42:55 10° N
Geosat 4.4 17:41:57 50° NE 17:41:57 50° NE 17:46:37 10° NNW
Cosmos 2061 Rocket 3.9 17:36:22 10° N 17:42:46 68° E 17:43:21 64° ESE
ERS-1 Rocket 3.0 17:44:16 72° NE 17:44:16 72° NE 17:49:00 10° N
Spot 2 Rocket 3.6 17:45:31 66° WSW 17:45:40 67° WSW 17:50:43 10° NNW
USA 215 3.1 17:41:48 10° NE 17:48:19 72° SE 17:49:28 59° S
Cosmos 1953 3.7 17:46:08 10° NNW 17:49:26 34° WNW 17:49:26 34° WNW
Cosmos 2233 Rocket 4.5 17:46:34 10° N 17:52:05 45° ENE 17:52:05 45° ENE
ARIANE 5 R/B 3.6 18:00:21 43° WNW 18:00:21 43° WNW 18:03:56 10° NNW
COSMOS 2428 3.2 17:58:38 42° WSW 18:00:15 56° WNW 18:05:54 10° N
Yuri Rocket 4.3 17:54:38 10° W 18:01:28 76° S 18:03:27 56° ESE
SL-08 R/B 4.4 18:05:06 10° N 18:11:25 76° W 18:11:36 75° WSW
Cosmos 2278 Rocket 3.9 18:07:40 10° N 18:11:35 22° NE 18:11:35 22° NE
Cosmos 1844 Rocket 3.4 18:10:45 10° NW 18:15:49 43° W 18:15:49 43° W
Cosmos 2016 Rocket 4.3 18:10:30 10° NNW 18:16:26 55° W 18:16:48 55° WSW
Terra 2.7 18:19:12 46° NW 18:19:12 46° NW 18:22:38 10° NNW
SPOT 5 3.9 18:20:38 42° WNW 18:20:38 42° WNW 18:24:45 10° NNW
Cosmos 1725 Rocket 4.5 18:24:05 10° NNW 18:30:00 50° W 18:30:06 50° W
Cosmos 1980 4.4 18:42:40 52° NNW 18:42:40 52° NNW 18:47:06 10° NNE
ATLAS CENTAUR R/B 3.5 18:38:03 10° NW 18:40:08 27° NW 18:40:08 27° NW
ATLAS CENTAUR R/B 3.6 19:06:46 45° N 19:06:46 45° N 19:14:05 10° NNE
SL-16 R/B 3.7 19:14:24 30° NE 19:14:24 30° NE 19:17:14 10° NNE
Cosmos 2237 Rocket 3.5 19:15:24 34° NW 19:15:24 34° NW 19:19:52 10° N
SJ 16-02 4.1 19:48:05 10° N 19:49:08 16° NNE 19:49:08 16° NNE
Cosmos 2278 Rocket 4.0 19:50:56 10° NW 19:53:25 24° NW 19:53:25 24° NW
USA 267 4.4 19:57:25 31° ENE 19:59:13 36° NE 20:05:04 10° NNW
Resurs 1-4 Rocket 4.4 20:19:37 10° NE 20:21:10 15° ENE 20:21:10 15° ENE
BREEZE-M DEB (TANK) 4.1 20:24:12 66° NNW 20:24:12 66° NNW 20:40:56 10° NE
Cosmos 1943 Rocket 3.5 20:21:43 10° N 20:25:04 36° N 20:25:04 36° N
CZ-2D R/B 4.1 20:36:53 10° NE 20:39:18 21° ENE 20:39:18 21° ENE
SL-16 R/B 4.5 20:56:15 14° WNW 20:56:15 14° WNW 20:59:08 10° NNW
Nadezhda 4 Rocket 4.4 21:01:40 58° NNE 21:01:40 58° NNE 21:06:33 10° N
ATLAS 5 CENTAUR R/B 3.9 21:01:44 52° SSE 21:01:44 52° SSE 21:37:29 10° ESE
Cosmos 2369 Rocket 3.0 21:11:24 10° NNW 21:15:29 48° N 21:15:29 48° N
ATLAS 5 CENTAUR R/B 3.7 21:25:03 21° NNE 21:25:03 21° NNE 21:26:32 10° NNE
SL-16 R/B 3.1 21:29:40 48° E 21:30:33 52° ENE 21:36:32 10° N
CZ-4C R/B 3.9 21:41:00 18° E 21:41:00 18° E 21:43:37 10° ENE
Cosmos 1092 Rocket 3.9 21:41:47 76° NNW 21:41:47 76° NNW 21:47:27 10° N
USA 267 4.2 21:44:43 33° WNW 21:44:43 33° WNW 21:48:19 10° NW
SeaSat 1 4.4 21:38:45 10° ENE 21:41:59 20° E 21:41:59 20° E
Helios 1B rocket 4.2 21:39:29 10° NNE 21:41:33 29° NNE 21:41:33 29° NNE
Meteor 2-19 Rocket 4.5 21:48:18 69° NW 21:48:18 69° NW 21:53:59 10° N
Cosmos 372 Rocket 4.3 21:48:26 10° N 21:53:24 62° ENE 21:53:24 62° ENE
Cosmos 1428 Rocket 4.4 21:55:45 81° W 21:55:48 81° W 22:02:07 10° N
Resurs 1-4 Rocket 2.9 21:57:57 10° N 22:02:14 41° NW 22:02:14 41° NW
Lacrosse 4 Rocket 3.1 22:03:24 10° N 22:06:57 29° ENE 22:07:48 26° E
Meteor 2-3 Rocket 3.6 22:06:53 81° ESE 22:07:00 81° E 22:12:36 10° N
Tianhe-1 4.2 22:13:14 13° ENE 22:13:14 13° ENE 22:13:40 10° ENE
NPP 4.2 22:08:14 10° N 22:12:57 45° WNW 22:12:57 45° WNW
ADEOS II 2.0 22:09:45 10° N 22:14:57 80° WNW 22:14:57 80° WNW
Cosmos 1809 Rocket 4.4 22:14:06 63° SSE 22:15:07 81° E 22:21:19 10° N
Okean 3 Rocket 4.2 22:17:48 51° E 22:17:48 51° E 22:21:56 10° NNE
CZ-2D R/B 3.3 22:16:39 10° NNW 22:20:37 29° WNW 22:20:37 29° WNW
IDEFIX/ARIANE 42P 2.6 22:24:30 10° NNE 22:29:43 71° ESE 22:30:41 56° SSE
OAO 3 Rocket 3.9 22:36:11 39° SE 22:36:11 39° SE 22:40:05 10° E
Meteor 1-26 Rocket 4.4 22:29:44 10° N 22:35:39 75° E 22:38:35 32° SSE
USA 281 4.3 22:33:35 10° SE 22:39:43 44° ENE 22:45:53 10° N
Meteor 2-14 Rocket 4.4 22:43:30 49° SW 22:45:04 68° W 22:51:10 10° N
Cosmos 1553 Rocket 3.9 22:39:41 10° N 22:45:57 82° W 22:48:40 36° S
Meteor 2-21 Rocket 4.3 22:44:15 42° S 22:46:29 89° W 22:52:41 10° N
IRS-1D 3.9 22:44:55 10° N 22:49:44 45° WNW 22:50:17 43° W
CBERS-1 4.1 22:44:44 10° N 22:49:47 60° WNW 22:50:43 51° WSW
BREEZE-M DEB (TANK) 3.5 22:41:54 10° NW 22:51:55 84° NE 22:55:01 10° SE
S3M 4.1 22:45:47 10° N 22:51:57 72° E 22:56:55 17° SSE
IRS-1C 4.1 22:47:06 10° NNE 22:52:27 77° ESE 22:54:34 38° S
deb Kosmos-1763 4.1 22:53:22 65° E 22:53:22 65° E 22:56:50 10° NNE
Delta 2 Rocket 3.6 22:56:35 48° WNW 22:57:24 59° NNW 23:01:09 10° ENE
MSX 3.7 22:51:57 10° NNE 22:57:43 87° WNW 23:00:15 36° SSW
CZ-2C R/B 4.0 22:56:25 10° NE 23:00:36 29° E 23:04:37 10° SSE
ADEOS Rocket 3.6 22:58:32 31° SSW 23:02:00 52° W 23:08:46 10° NNW
X-37B 4.0 23:01:11 10° N 23:02:20 11° NNE 23:03:30 10° NE
Cosmos 2084 Rocket 3.0 23:02:37 67° SW 23:03:06 85° WNW 23:07:02 10° NNE
Cosmos 1812 3.4 23:00:48 10° N 23:04:33 52° E 23:06:51 21° SSE
Cosmos 773 Rocket 4.2 23:03:01 31° S 23:05:34 71° ESE 23:10:51 10° NNE
Cosmos 1417 Rocket 4.5 23:00:05 10° NNW 23:06:22 67° W 23:10:09 25° SSW
CZ-2C R/B 1.8 23:07:39 34° SE 23:07:39 34° SE 23:10:29 10° E
CZ-4C R/B 2.8 23:08:53 62° S 23:09:23 79° WSW 23:12:50 10° NNW
GPS 2-04 Rocket1 3.9 23:07:30 17° WNW 23:10:09 39° N 23:13:46 10° ENE
Cosmos 1782 3.0 23:06:29 10° NNW 23:10:21 48° W 23:10:36 47° WSW
Cosmos 1500 Rocket 4.1 23:09:43 22° SSE 23:12:21 56° E 23:16:35 10° NNE
Cosmos 1271 Rocket 2.5 23:09:30 10° N 23:13:14 80° W 23:14:29 41° S
SL-16 R/B 3.9 23:14:46 19° W 23:14:46 19° W 23:18:31 10° NW
Spot 1 4.4 23:10:23 15° SSE 23:14:36 85° W 23:19:36 10° NNW
Cosmos 1743 Rocket 3.9 23:13:53 21° S 23:16:38 62° E 23:20:59 10° NNE
Cosmos 2298 Rocket 4.3 23:12:36 10° NNW 23:17:41 47° WSW 23:20:09 27° SSW
Cosmos 44 3.4 23:16:37 31° SSW 23:19:09 86° ESE 23:24:33 10° NNE
SeaSat 1 3.2 23:15:19 10° N 23:19:52 39° WNW 23:21:46 28° WSW
Cosmos 1833 Rocket 2.6 23:16:55 27° SSW 23:20:08 88° ESE 23:25:48 10° NNE
Meteor 2-6 Rocket 4.3 23:14:27 10° N 23:20:19 80° E 23:25:58 10° S
Cosmos 1328 Rocket 3.6 23:17:12 10° NNW 23:21:29 59° W 23:23:32 29° SSW
Cosmos 2266 Rocket 4.2 23:19:55 28° SW 23:22:59 51° W 23:28:54 10° N
Chandra Rocket (1) 3.1 23:22:26 22° WSW 23:28:04 53° S 23:31:50 10° E
CZ-4C R/B 2.9 23:26:11 24° W 23:28:10 33° NW 23:32:59 10° NNE
Gbstr 26 Del rocket 3.6 23:26:49 26° SSW 23:29:10 56° SE 23:34:25 10° NE
ASC 2 Rocket 4.0 23:28:34 28° SW 23:29:59 33° SSW 23:33:53 10° SE
Cosmos 883 Rocket 4.4 23:24:23 10° N 23:30:31 86° W 23:36:38 10° S
ALOS 3.7 23:26:50 10° NNE 23:31:06 35° E 23:35:20 10° SSE
FENGYUN 3A 4.5 23:31:39 10° NNE 23:36:54 49° E 23:42:08 10° S
Cosmos 1125 Rocket 4.0 23:32:41 10° NNW 23:37:34 40° W 23:41:43 14° SSW
Sich 1 4.2 23:35:08 10° SSE 23:39:16 43° E 23:43:27 10° NNE
Cosmos 2082 Rocket 2.5 23:37:25 11° S 23:42:40 64° ESE 23:48:13 10° NNE
CZ-4B R/B 4.1 23:38:18 10° N 23:43:14 43° WNW 23:46:32 19° SW
ARIANE 5 R/B 3.1 23:38:55 10° N 23:43:32 39° WNW 23:46:35 19° SW
Lacrosse 4 Rocket 3.3 23:42:56 10° WNW 23:43:58 13° W 23:43:58 13° W
Cosmos 1151 Rocket 4.3 23:42:08 10° NW 23:45:21 21° W 23:46:19 20° WSW
Tianhe-1 2.9 23:45:20 13° WNW 23:47:29 24° NNW 23:50:08 10° NE
Cosmos 1515 Rocket 3.8 23:48:12 10° NNW 23:52:28 48° W 23:56:43 10° SSW
